• Em Portugal
  • Lista de países
  • Para 7 dias
  • Temperatura da água
  • Mapas de satélite
  • Mapa do tempo
  • Widgets de tempo
  • user-avatar
    Iniciar Sessão

    Previsão horária em Amar

    Hoje, 25 Setembro, Segunda-feira

    Tempo Temperatura Precipitação Vento Pressão Humidade
    00:00 +32°C° 0 mm 1 m/s 753 mmHg 56%
    01:00 +32°C° 0 mm 1 m/s 753 mmHg 56%
    02:00 +32°C° 0 mm 1 m/s 752 mmHg 57%
    03:00 +31°C° 0 mm 1 m/s 752 mmHg 60%
    04:00 +31°C° 0 mm 1 m/s 752 mmHg 61%
    05:00 +31°C° 0 mm 1 m/s 753 mmHg 62%
    06:00 +31°C° 0 mm 1 m/s 753 mmHg 63%
    07:00 +32°C° 0 mm 1 m/s 753 mmHg 57%
    08:00 +34°C° 0 mm 1 m/s 753 mmHg 51%
    09:00 +36°C° 0 mm 1 m/s 753 mmHg 46%
    10:00 +37°C° 0 mm 1 m/s 753 mmHg 41%
    11:00 +39°C° 0 mm 1 m/s 753 mmHg 36%
    12:00 +40°C° 0 mm 1 m/s 753 mmHg 31%
    13:00 +41°C° 0 mm 2 m/s 752 mmHg 28%
    14:00 +42°C° 0 mm 3 m/s 752 mmHg 25%
    15:00 +42°C° 0 mm 4 m/s 752 mmHg 23%
    16:00 +41°C° 0 mm 4 m/s 752 mmHg 27%
    17:00 +38°C° 0 mm 4 m/s 752 mmHg 31%
    18:00 +37°C° 0 mm 3 m/s 752 mmHg 35%
    19:00 +36°C° 0 mm 3 m/s 752 mmHg 37%
    20:00 +36°C° 0 mm 3 m/s 752 mmHg 38%
    21:00 +35°C° 0 mm 2 m/s 753 mmHg 40%
    22:00 +34°C° 0 mm 2 m/s 753 mmHg 42%
    23:00 +34°C° 0 mm 2 m/s 752 mmHg 44%

    Amanhã, 26 Setembro, Terça-feira

    Tempo Temperatura Precipitação Vento Pressão Humidade
    00:00 +32°C° 0 mm 1 m/s 752 mmHg 47%
    01:00 +32°C° 0 mm 1 m/s 752 mmHg 47%
    02:00 +31°C° 0 mm 1 m/s 752 mmHg 47%
    03:00 +31°C° 0 mm 1 m/s 752 mmHg 47%
    04:00 +31°C° 0 mm 1 m/s 752 mmHg 47%
    05:00 +30°C° 0 mm 1 m/s 752 mmHg 46%
    06:00 +30°C° 0 mm 1 m/s 752 mmHg 45%
    07:00 +32°C° 0 mm 2 m/s 753 mmHg 40%
    08:00 +36°C° 0 mm 2 m/s 753 mmHg 34%
    09:00 +38°C° 0 mm 2 m/s 753 mmHg 28%
    10:00 +39°C° 0 mm 2 m/s 753 mmHg 25%
    11:00 +40°C° 0 mm 2 m/s 753 mmHg 22%
    12:00 +41°C° 0 mm 2 m/s 753 mmHg 19%
    13:00 +41°C° 0 mm 2 m/s 752 mmHg 18%
    14:00 +42°C° 0 mm 3 m/s 752 mmHg 17%
    15:00 +43°C° 0 mm 3 m/s 751 mmHg 17%
    16:00 +40°C° 0 mm 2 m/s 751 mmHg 20%
    17:00 +39°C° 0 mm 2 m/s 752 mmHg 23%
    18:00 +37°C° 0 mm 2 m/s 752 mmHg 26%
    19:00 +37°C° 0 mm 2 m/s 752 mmHg 27%
    20:00 +36°C° 0 mm 2 m/s 752 mmHg 29%
    21:00 +36°C° 0 mm 3 m/s 753 mmHg 31%
    22:00 +35°C° 0 mm 3 m/s 753 mmHg 34%
    23:00 +35°C° 0 mm 3 m/s 752 mmHg 37%

    Depois de amanhã, 27 Setembro, Quarta-feira

    Tempo Temperatura Precipitação Vento Pressão Humidade
    00:00 +35°C° 0 mm 3 m/s 752 mmHg 40%
    01:00 +34°C° 0 mm 3 m/s 752 mmHg 41%
    02:00 +32°C° 0 mm 2 m/s 752 mmHg 42%
    03:00 +32°C° 0 mm 2 m/s 752 mmHg 42%
    04:00 +32°C° 0 mm 2 m/s 752 mmHg 41%
    05:00 +31°C° 0 mm 2 m/s 753 mmHg 39%
    06:00 +31°C° 0 mm 2 m/s 753 mmHg 37%
    07:00 +33°C° 0 mm 1 m/s 753 mmHg 32%
    08:00 +35°C° 0 mm 1 m/s 754 mmHg 28%
    09:00 +37°C° 0 mm 1 m/s 754 mmHg 24%
    10:00 +39°C° 0 mm 1 m/s 754 mmHg 22%
    11:00 +40°C° 0 mm 1 m/s 754 mmHg 20%
    12:00 +41°C° 0 mm 1 m/s 754 mmHg 18%
    13:00 +41°C° 0 mm 2 m/s 753 mmHg 19%
    14:00 +41°C° 0 mm 2 m/s 753 mmHg 19%
    15:00 +42°C° 0 mm 3 m/s 752 mmHg 19%
    16:00 +40°C° 0 mm 3 m/s 752 mmHg 23%
    17:00 +39°C° 0 mm 3 m/s 752 mmHg 27%
    18:00 +37°C° 0 mm 3 m/s 752 mmHg 30%
    19:00 +37°C° 0 mm 3 m/s 753 mmHg 34%
    20:00 +36°C° 0 mm 3 m/s 753 mmHg 37%
    21:00 +36°C° 0 mm 3 m/s 753 mmHg 40%
    22:00 +35°C° 0 mm 3 m/s 753 mmHg 43%
    23:00 +34°C° 0 mm 2 m/s 753 mmHg 45%

    28 Setembro, Quinta-feira

    Tempo Temperatura Precipitação Vento Pressão Humidade
    00:00 +34°C° 0 mm 2 m/s 752 mmHg 47%
    01:00 +32°C° 0 mm 2 m/s 752 mmHg 47%
    02:00 +32°C° 0 mm 1 m/s 752 mmHg 47%
    03:00 +31°C° 0 mm 1 m/s 752 mmHg 46%
    04:00 +31°C° 0 mm 1 m/s 752 mmHg 45%
    05:00 +31°C° 0 mm 2 m/s 753 mmHg 44%
    06:00 +31°C° 0 mm 2 m/s 753 mmHg 43%
    07:00 +34°C° 0 mm 2 m/s 754 mmHg 38%
    08:00 +36°C° 0 mm 2 m/s 754 mmHg 33%
    09:00 +38°C° 0 mm 2 m/s 754 mmHg 29%
    10:00 +39°C° 0 mm 2 m/s 754 mmHg 26%
    11:00 +40°C° 0 mm 2 m/s 753 mmHg 23%
    12:00 +41°C° 0 mm 2 m/s 753 mmHg 21%
    13:00 +41°C° 0 mm 2 m/s 753 mmHg 20%
    14:00 +41°C° 0 mm 2 m/s 752 mmHg 19%
    15:00 +43°C° 0 mm 3 m/s 752 mmHg 18%
    16:00 +40°C° 0 mm 3 m/s 752 mmHg 22%
    17:00 +39°C° 0 mm 3 m/s 752 mmHg 25%
    18:00 +37°C° 0 mm 3 m/s 752 mmHg 29%
    19:00 +36°C° 0 mm 2 m/s 752 mmHg 31%
    20:00 +36°C° 0 mm 2 m/s 753 mmHg 33%
    21:00 +34°C° 0 mm 1 m/s 753 mmHg 36%
    22:00 +33°C° 0 mm 1 m/s 753 mmHg 36%
    23:00 +32°C° 0 mm 1 m/s 752 mmHg 37%

    29 Setembro, Sexta-feira

    Tempo Temperatura Precipitação Vento Pressão Humidade
    00:00 +32°C° 0 mm 1 m/s 752 mmHg 38%
    01:00 +32°C° 0 mm 1 m/s 752 mmHg 37%
    02:00 +32°C° 0 mm 2 m/s 752 mmHg 37%
    03:00 +32°C° 0 mm 2 m/s 751 mmHg 36%
    04:00 +33°C° 0 mm 3 m/s 752 mmHg 35%
    05:00 +33°C° 0 mm 3 m/s 752 mmHg 34%
    06:00 +33°C° 0 mm 3 m/s 752 mmHg 33%
    07:00 +35°C° 0 mm 3 m/s 753 mmHg 29%
    08:00 +37°C° 0 mm 3 m/s 753 mmHg 25%
    09:00 +39°C° 0 mm 3 m/s 753 mmHg 21%
    10:00 +40°C° 0 mm 2 m/s 753 mmHg 19%
    11:00 +41°C° 0 mm 2 m/s 752 mmHg 18%
    12:00 +42°C° 0 mm 2 m/s 752 mmHg 16%
    13:00 +42°C° 0 mm 2 m/s 751 mmHg 16%
    14:00 +43°C° 0 mm 3 m/s 751 mmHg 16%
    15:00 +43°C° 0 mm 3 m/s 750 mmHg 16%
    16:00 +42°C° 0 mm 3 m/s 751 mmHg 20%
    17:00 +39°C° 0 mm 3 m/s 751 mmHg 24%
    18:00 +37°C° 0 mm 2 m/s 751 mmHg 28%
    19:00 +37°C° 0 mm 2 m/s 751 mmHg 30%
    20:00 +36°C° 0 mm 2 m/s 752 mmHg 33%
    21:00 +35°C° 0 mm 2 m/s 752 mmHg 36%
    22:00 +33°C° 0 mm 1 m/s 752 mmHg 39%
    23:00 +32°C° 0 mm 1 m/s 752 mmHg 43%

    30 Setembro, Sábado

    Tempo Temperatura Precipitação Vento Pressão Humidade
    00:00 +30°C° 0 mm 0 m/s 751 mmHg 46%
    01:00 +29°C° 0 mm 0 m/s 751 mmHg 46%
    02:00 +31°C° 0 mm 1 m/s 751 mmHg 47%
    03:00 +31°C° 0 mm 1 m/s 751 mmHg 47%
    04:00 +31°C° 0 mm 1 m/s 752 mmHg 46%
    05:00 +31°C° 0 mm 1 m/s 752 mmHg 45%
    06:00 +31°C° 0 mm 1 m/s 752 mmHg 44%
    07:00 +33°C° 0 mm 1 m/s 753 mmHg 39%
    08:00 +35°C° 0 mm 1 m/s 753 mmHg 35%
    09:00 +37°C° 0 mm 1 m/s 753 mmHg 30%
    10:00 +39°C° 0 mm 1 m/s 753 mmHg 28%
    11:00 +39°C° 0 mm 1 m/s 753 mmHg 26%
    12:00 +40°C° 0 mm 1 m/s 753 mmHg 23%
    13:00 +41°C° 0 mm 2 m/s 752 mmHg 23%
    14:00 +42°C° 0 mm 3 m/s 752 mmHg 22%
    15:00 +42°C° 0 mm 3 m/s 751 mmHg 22%
    16:00 +40°C° 0 mm 3 m/s 752 mmHg 25%
    17:00 +39°C° 0 mm 3 m/s 752 mmHg 29%
    18:00 +37°C° 0 mm 4 m/s 752 mmHg 33%
    19:00 +37°C° 0 mm 4 m/s 752 mmHg 35%
    20:00 +36°C° 0 mm 4 m/s 753 mmHg 38%
    21:00 +36°C° 0 mm 3 m/s 753 mmHg 40%
    22:00 +36°C° 0 mm 3 m/s 753 mmHg 41%
    23:00 +35°C° 0 mm 3 m/s 753 mmHg 42%
    Mostrar mais